74.9860;-167.3070;1; 393.008; 198.359;1968.10.23 12:00:00;-999.0;-999.0;-999.0; 999.0;    .000;    .000;   0.000; 90;
74.9898;-167.3973;2; 393.024; 198.619;1968.10.23 18:00:00;-999.0;-999.0;-999.0; 999.0;   2.636;    .250;   0.439;279;
74.9935;-167.4877;2; 393.040; 198.878;1968.10.24 00:00:00;-999.0;-999.0;-999.0; 999.0;   5.271;    .500;   0.439;279;
74.9972;-167.5782;2; 393.056; 199.138;1968.10.24 06:00:00;-999.0;-999.0;-999.0; 999.0;   7.907;    .750;   0.439;279;
75.0008;-167.6686;2; 393.072; 199.397;1968.10.24 12:00:00;-999.0;-999.0;-999.0; 999.0;  10.542;   1.000;   0.439;279;
75.0044;-167.7592;2; 393.088; 199.657;1968.10.24 18:00:00;-999.0;-999.0;-999.0; 999.0;  13.177;   1.250;   0.439;279;
75.0080;-167.8497;2; 393.104; 199.916;1968.10.25 00:00:00;-999.0;-999.0;-999.0; 999.0;  15.813;   1.500;   0.439;279;
75.0115;-167.9403;2; 393.120; 200.176;1968.10.25 06:00:00;-999.0;-999.0;-999.0; 999.0;  18.448;   1.750;   0.439;279;
75.0150;-168.0310;2; 393.136; 200.436;1968.10.25 12:00:00;-999.0;-999.0;-999.0; 999.0;  21.083;   2.000;   0.439;278;
75.0240;-168.1493;2; 393.109; 200.784;1968.10.25 18:00:00;-999.0;-999.0;-999.0; 999.0;  24.626;   2.250;   0.590;286;
75.0329;-168.2677;2; 393.082; 201.132;1968.10.26 00:00:00;-999.0;-999.0;-999.0; 999.0;  28.169;   2.500;   0.590;286;
75.0417;-168.3862;2; 393.055; 201.481;1968.10.26 06:00:00;-999.0;-999.0;-999.0; 999.0;  31.711;   2.750;   0.590;286;
75.0505;-168.5049;2; 393.028; 201.829;1968.10.26 12:00:00;-999.0;-999.0;-999.0; 999.0;  35.254;   3.000;   0.590;286;
75.0592;-168.6237;2; 393.001; 202.178;1968.10.26 18:00:00;-999.0;-999.0;-999.0; 999.0;  38.796;   3.250;   0.590;286;
75.0679;-168.7427;2; 392.974; 202.526;1968.10.27 00:00:00;-999.0;-999.0;-999.0; 999.0;  42.339;   3.500;   0.590;286;
75.0765;-168.8618;2; 392.947; 202.875;1968.10.27 06:00:00;-999.0;-999.0;-999.0; 999.0;  45.882;   3.750;   0.590;286;
75.0850;-168.9810;2; 392.920; 203.223;1968.10.27 12:00:00;-999.0;-999.0;-999.0; 999.0;  49.424;   4.000;   0.590;286;
75.0988;-169.1284;2; 392.850; 203.660;1968.10.27 18:00:00;-999.0;-999.0;-999.0; 999.0;  53.914;   4.250;   0.748;290;
75.1126;-169.2761;2; 392.779; 204.098;1968.10.28 00:00:00;-999.0;-999.0;-999.0; 999.0;  58.404;   4.500;   0.748;290;
75.1263;-169.4241;2; 392.709; 204.535;1968.10.28 06:00:00;-999.0;-999.0;-999.0; 999.0;  62.894;   4.750;   0.748;290;
75.1398;-169.5723;2; 392.639; 204.972;1968.10.28 12:00:00;-999.0;-999.0;-999.0; 999.0;  67.384;   5.000;   0.748;290;
75.1533;-169.7209;2; 392.569; 205.410;1968.10.28 18:00:00;-999.0;-999.0;-999.0; 999.0;  71.873;   5.250;   0.748;289;
75.1666;-169.8696;2; 392.499; 205.847;1968.10.29 00:00:00;-999.0;-999.0;-999.0; 999.0;  76.363;   5.500;   0.748;289;
75.1798;-170.0187;2; 392.429; 206.284;1968.10.29 06:00:00;-999.0;-999.0;-999.0; 999.0;  80.852;   5.750;   0.748;289;
75.1930;-170.1680;2; 392.359; 206.721;1968.10.29 12:00:00;-999.0;-999.0;-999.0; 999.0;  85.342;   6.000;   0.748;289;
75.2111;-170.3461;2; 392.247; 207.247;1968.10.29 18:00:00;-999.0;-999.0;-999.0; 999.0;  90.788;   6.250;   0.908;292;
75.2291;-170.5247;2; 392.136; 207.772;1968.10.30 00:00:00;-999.0;-999.0;-999.0; 999.0;  96.233;   6.500;   0.908;292;
75.2470;-170.7036;2; 392.024; 208.297;1968.10.30 06:00:00;-999.0;-999.0;-999.0; 999.0; 101.679;   6.750;   0.908;291;
75.2647;-170.8831;2; 391.913; 208.822;1968.10.30 12:00:00;-999.0;-999.0;-999.0; 999.0; 107.124;   7.000;   0.908;291;
75.2822;-171.0629;2; 391.802; 209.348;1968.10.30 18:00:00;-999.0;-999.0;-999.0; 999.0; 112.569;   7.250;   0.908;291;
75.2996;-171.2432;2; 391.690; 209.873;1968.10.31 00:00:00;-999.0;-999.0;-999.0; 999.0; 118.015;   7.500;   0.908;291;
75.3169;-171.4239;2; 391.579; 210.398;1968.10.31 06:00:00;-999.0;-999.0;-999.0; 999.0; 123.460;   7.750;   0.908;291;
75.3340;-171.6050;2; 391.467; 210.923;1968.10.31 12:00:00;-999.0;-999.0;-999.0; 999.0; 128.906;   8.000;   0.908;290;
75.3438;-171.7487;2; 391.419; 211.333;1968.10.31 18:00:00;-999.0;-999.0;-999.0; 999.0; 133.095;   8.250;   0.698;285;
75.3536;-171.8926;2; 391.370; 211.744;1968.11.01 00:00:00;-999.0;-999.0;   4.0;  50.0; 137.285;   8.500;   0.698;285;
75.3632;-172.0367;2; 391.321; 212.154;1968.11.01 06:00:00; -22.3;1018.7;   4.0;  20.0; 141.474;   8.750;   0.698;285;
75.3727;-172.1810;2; 391.272; 212.564;1968.11.01 12:00:00; -23.7;1020.9;   3.0; 360.0; 145.664;   9.000;   0.698;285;
75.3822;-172.3255;2; 391.223; 212.974;1968.11.01 18:00:00; -24.5;1023.9;   3.0; 360.0; 149.854;   9.250;   0.698;285;
75.3916;-172.4701;2; 391.174; 213.384;1968.11.02 00:00:00; -25.5;1026.1;   4.0; 360.0; 154.043;   9.500;   0.698;284;
75.4008;-172.6150;2; 391.126; 213.794;1968.11.02 06:00:00; -26.3;1028.2;   3.0;  20.0; 158.233;   9.750;   0.698;284;
75.4100;-172.7600;2; 391.077; 214.204;1968.11.02 12:00:00; -26.3;1029.0;   3.0; 360.0; 162.422;  10.000;   0.698;284;
75.4113;-172.9419;2; 391.126; 214.704;1968.11.02 18:00:00; -27.2;1028.9;   4.0; 360.0; 167.520;  10.250;   0.850;272;
75.4124;-173.1239;2; 391.175; 215.204;1968.11.03 00:00:00; -27.6;1029.1;   3.0; 360.0; 172.617;  10.500;   0.850;271;
75.4134;-173.3058;2; 391.223; 215.704;1968.11.03 06:00:00; -27.4;1029.7;   4.0; 360.0; 177.714;  10.750;   0.850;271;
75.4142;-173.4878;2; 391.272; 216.205;1968.11.03 12:00:00; -27.8;1030.5;   5.0; 360.0; 182.811;  11.000;   0.850;271;
75.4148;-173.6699;2; 391.321; 216.705;1968.11.03 18:00:00; -28.4;1032.1;   5.0;  20.0; 187.909;  11.250;   0.850;271;
75.4154;-173.8519;2; 391.370; 217.205;1968.11.04 00:00:00; -28.0;1033.8;   5.0;  20.0; 193.006;  11.500;   0.850;271;
75.4158;-174.0339;2; 391.419; 217.705;1968.11.04 06:00:00; -28.0;1036.0;   4.0;  20.0; 198.103;  11.750;   0.850;270;
75.4160;-174.2160;2; 391.467; 218.205;1968.11.04 12:00:00; -26.7;1037.6;   3.0;  20.0; 203.201;  12.000;   0.850;270;
75.3912;-174.1525;2; 391.720; 218.003;1968.11.04 18:00:00; -25.3;1039.6;   3.0;  50.0; 206.484;  12.250;   0.547;147;
75.3664;-174.0892;2; 391.973; 217.801;1968.11.05 00:00:00; -24.8;1041.3;   4.0;  50.0; 209.766;  12.500;   0.547;147;
75.3415;-174.0262;2; 392.226; 217.599;1968.11.05 06:00:00; -26.5;1041.8;   3.0;  50.0; 213.050;  12.750;   0.547;147;
75.3166;-173.9633;2; 392.479; 217.397;1968.11.05 12:00:00; -26.5;1042.5;   3.0;  50.0; 216.333;  13.000;   0.547;147;
75.2918;-173.9007;2; 392.732; 217.195;1968.11.05 18:00:00; -26.7;1042.5;   4.0;  50.0; 219.615;  13.250;   0.547;147;
75.2669;-173.8382;2; 392.984; 216.992;1968.11.06 00:00:00; -25.3;1043.3;   3.0;  50.0; 222.899;  13.500;   0.547;148;
75.2419;-173.7760;2; 393.237; 216.790;1968.11.06 06:00:00; -24.7;1043.2;   3.0;  50.0; 226.182;  13.750;   0.547;148;
75.2170;-173.7140;2; 393.490; 216.588;1968.11.06 12:00:00; -22.5;1043.9;   4.0;  50.0; 229.465;  14.000;   0.547;148;
75.2110;-173.6921;2; 393.549; 216.520;1968.11.06 18:00:00; -20.8;1044.7;   3.0;  50.0; 230.377;  14.250;   0.152;137;
75.2050;-173.6701;2; 393.608; 216.452;1968.11.07 00:00:00; -21.5;1044.4;   3.0;  20.0; 231.289;  14.500;   0.152;137;
75.1990;-173.6482;2; 393.666; 216.384;1968.11.07 06:00:00; -21.2;1042.5;   4.0;  20.0; 232.201;  14.750;   0.152;137;
75.1930;-173.6263;2; 393.725; 216.315;1968.11.07 12:00:00; -23.3;1041.8;   3.0;  20.0; 233.112;  15.000;   0.152;137;
75.1870;-173.6045;2; 393.783; 216.247;1968.11.07 18:00:00; -23.5;1039.9;   4.0;  20.0; 234.024;  15.250;   0.152;137;
75.1810;-173.5826;2; 393.842; 216.179;1968.11.08 00:00:00; -22.3;1038.0;   3.0;  20.0; 234.937;  15.500;   0.152;137;
75.1750;-173.5608;2; 393.900; 216.111;1968.11.08 06:00:00; -19.4;1036.1;   6.0;  50.0; 235.848;  15.750;   0.152;137;
75.1690;-173.5390;2; 393.959; 216.042;1968.11.08 12:00:00; -20.3;1032.5;   5.0; 360.0; 236.761;  16.000;   0.152;137;
75.1657;-173.7258;2; 394.053; 216.560;1968.11.08 18:00:00; -21.6;1028.6;   7.0;  70.0; 242.092;  16.250;   0.888;266;
75.1622;-173.9126;2; 394.148; 217.077;1968.11.09 00:00:00; -21.0;1024.6;   8.0;  50.0; 247.423;  16.500;   0.889;266;
75.1586;-174.0992;2; 394.242; 217.594;1968.11.09 06:00:00; -18.4;1021.3;  10.0;  50.0; 252.754;  16.750;   0.888;266;
75.1548;-174.2858;2; 394.337; 218.111;1968.11.09 12:00:00; -19.4;1017.9;  12.0;  70.0; 258.084;  17.000;   0.888;265;
75.1508;-174.4722;2; 394.431; 218.629;1968.11.09 18:00:00; -19.6;1014.4;  13.0;  50.0; 263.415;  17.250;   0.889;265;
75.1467;-174.6586;2; 394.526; 219.146;1968.11.10 00:00:00; -20.4;1014.6;  15.0;  50.0; 268.746;  17.500;   0.888;265;
75.1424;-174.8448;2; 394.620; 219.663;1968.11.10 06:00:00; -19.3;1014.6;  12.0;  70.0; 274.077;  17.750;   0.889;265;
75.1380;-175.0310;2; 394.715; 220.180;1968.11.10 12:00:00; -19.2;1016.7;  12.0;  70.0; 279.408;  18.000;   0.888;265;
75.1392;-175.3452;2; 394.776; 221.062;1968.11.10 18:00:00; -19.9;1017.7;  12.0;  50.0; 288.371;  18.250;   1.494;271;
75.1399;-175.6595;2; 394.837; 221.944;1968.11.11 00:00:00; -20.2;1019.7;  10.0;  50.0; 297.334;  18.500;   1.494;271;
75.1402;-175.9738;2; 394.898; 222.826;1968.11.11 06:00:00; -22.1;1021.2;   9.0;  20.0; 306.297;  18.750;   1.494;270;
75.1401;-176.2881;2; 394.960; 223.708;1968.11.11 12:00:00; -23.9;1023.4;   6.0;  20.0; 315.260;  19.000;   1.494;270;
75.1395;-176.6024;2; 395.021; 224.590;1968.11.11 18:00:00; -24.9;1025.2;   8.0;  50.0; 324.223;  19.250;   1.494;270;
75.1384;-176.9167;2; 395.083; 225.472;1968.11.12 00:00:00; -24.9;1027.6;   7.0;  20.0; 333.186;  19.500;   1.494;269;
75.1369;-177.2309;2; 395.144; 226.354;1968.11.12 06:00:00; -25.1;1028.9;   7.0;  20.0; 342.149;  19.750;   1.494;269;
75.1350;-177.5450;2; 395.205; 227.236;1968.11.12 12:00:00; -25.9;1029.8;   6.0;  50.0; 351.111;  20.000;   1.494;269;
75.1327;-177.6969;2; 395.248; 227.662;1968.11.12 18:00:00; -24.5;1031.2;   6.0;  50.0; 355.453;  20.250;   0.724;267;
75.1304;-177.8488;2; 395.291; 228.088;1968.11.13 00:00:00; -22.7;1031.7;   6.0;  50.0; 359.795;  20.500;   0.724;267;
75.1279;-178.0006;2; 395.333; 228.514;1968.11.13 06:00:00; -23.4;1033.9;   6.0;  50.0; 364.136;  20.750;   0.724;266;
75.1253;-178.1524;2; 395.376; 228.940;1968.11.13 12:00:00; -24.2;1035.2;   5.0;  50.0; 368.478;  21.000;   0.724;266;
75.1227;-178.3042;2; 395.418; 229.366;1968.11.13 18:00:00; -24.9;1036.9;   4.0;  20.0; 372.820;  21.250;   0.724;266;
75.1199;-178.4558;2; 395.461; 229.792;1968.11.14 00:00:00; -24.7;1038.3;   4.0; 360.0; 377.161;  21.500;   0.724;266;
75.1170;-178.6074;2; 395.503; 230.219;1968.11.14 06:00:00; -23.3;1038.9;   5.0;  50.0; 381.503;  21.750;   0.724;266;
75.1140;-178.7590;2; 395.546; 230.645;1968.11.14 12:00:00; -23.5;1040.2;   5.0;  50.0; 385.844;  22.000;   0.724;266;
75.1026;-178.9127;2; 395.680; 231.075;1968.11.14 18:00:00; -24.1;1041.2;   5.0;  50.0; 390.415;  22.250;   0.762;254;
75.0911;-179.0662;2; 395.813; 231.506;1968.11.15 00:00:00; -23.9;1042.0;   5.0;  50.0; 394.986;  22.500;   0.762;254;
75.0796;-179.2194;2; 395.947; 231.937;1968.11.15 06:00:00; -23.6;1043.1;   6.0;  50.0; 399.557;  22.750;   0.762;254;
75.0678;-179.3724;2; 396.080; 232.367;1968.11.15 12:00:00; -23.5;1043.9;   6.0;  50.0; 404.129;  23.000;   0.762;253;
75.0561;-179.5252;2; 396.214; 232.798;1968.11.15 18:00:00; -23.1;1044.2;   6.0;  50.0; 408.699;  23.250;   0.762;253;
75.0441;-179.6777;2; 396.348; 233.229;1968.11.16 00:00:00; -23.5;1044.7;   5.0;  50.0; 413.270;  23.500;   0.762;253;
75.0321;-179.8300;2; 396.481; 233.659;1968.11.16 06:00:00; -23.9;1045.3;   5.0;  70.0; 417.842;  23.750;   0.762;253;
75.0200;-179.9820;2; 396.615; 234.090;1968.11.16 12:00:00; -24.1;1045.9;   6.0;  70.0; 422.413;  24.000;   0.762;253;
75.0145; 179.8732;2; 396.675; 234.501;1968.11.16 18:00:00; -24.6;1046.2;   6.0;  50.0; 426.620;  24.250;   0.701; 90;
75.0088; 179.7286;2; 396.736; 234.911;1968.11.17 00:00:00; -23.9;1046.8;   6.0;  70.0; 430.827;  24.500;   0.701;261;
75.0031; 179.5840;2; 396.796; 235.322;1968.11.17 06:00:00; -23.3;1046.3;   6.0;  20.0; 435.034;  24.750;   0.701;261;
74.9973; 179.4396;2; 396.857; 235.733;1968.11.17 12:00:00; -23.2;1045.9;   6.0;  20.0; 439.240;  25.000;   0.701;261;
74.9913; 179.2953;2; 396.917; 236.143;1968.11.17 18:00:00; -24.1;1043.8;   5.0; 360.0; 443.448;  25.250;   0.701;261;
74.9853; 179.1511;2; 396.978; 236.554;1968.11.18 00:00:00; -23.9;1042.1;   6.0;  20.0; 447.655;  25.500;   0.701;261;
74.9792; 179.0070;2; 397.038; 236.965;1968.11.18 06:00:00; -24.5;1040.1;   6.0;  20.0; 451.861;  25.750;   0.701;261;
74.9730; 178.8630;2; 397.099; 237.375;1968.11.18 12:00:00; -24.5;1039.2;   6.0;  20.0; 456.068;  26.000;   0.701;261;
74.9732; 178.7564;2; 397.090; 237.679;1968.11.18 18:00:00; -24.5;1038.0;   7.0;  20.0; 459.142;  26.250;   0.512;270;
74.9733; 178.6497;2; 397.082; 237.982;1968.11.19 00:00:00; -25.0;1038.5;   7.0;  20.0; 462.216;  26.500;   0.512;270;
74.9734; 178.5431;2; 397.074; 238.285;1968.11.19 06:00:00; -24.1;1039.0;   7.0;  50.0; 465.290;  26.750;   0.512;270;
74.9734; 178.4365;2; 397.065; 238.588;1968.11.19 12:00:00; -24.6;1039.4;   7.0;  20.0; 468.364;  27.000;   0.512;270;
74.9734; 178.3299;2; 397.057; 238.891;1968.11.19 18:00:00; -24.8;1038.9;   6.0;  70.0; 471.438;  27.250;   0.512;270;
74.9733; 178.2233;2; 397.049; 239.195;1968.11.20 00:00:00; -25.3;1038.8;   5.0;  70.0; 474.512;  27.500;   0.512;270;
74.9732; 178.1166;2; 397.041; 239.498;1968.11.20 06:00:00; -25.2;1038.9;   6.0;  70.0; 477.586;  27.750;   0.512;270;
74.9730; 178.0100;2; 397.032; 239.801;1968.11.20 12:00:00; -24.5;1039.5;   6.0;  70.0; 480.660;  28.000;   0.512;270;
74.9732; 177.9139;2; 397.021; 240.074;1968.11.20 18:00:00; -22.3;1041.0;   6.0;  90.0; 483.431;  28.250;   0.462;270;
74.9733; 177.8177;2; 397.010; 240.347;1968.11.21 00:00:00; -23.7;1042.4;   5.0;  90.0; 486.203;  28.500;   0.462;270;
74.9733; 177.7216;2; 396.998; 240.621;1968.11.21 06:00:00; -24.3;1041.7;   6.0;  70.0; 488.974;  28.750;   0.462;270;
74.9733; 177.6255;2; 396.987; 240.894;1968.11.21 12:00:00; -24.8;1041.0;   5.0;  70.0; 491.745;  29.000;   0.462;270;
74.9733; 177.5294;2; 396.976; 241.167;1968.11.21 18:00:00; -25.5;1039.9;   6.0;  70.0; 494.516;  29.250;   0.462;270;
74.9733; 177.4332;2; 396.964; 241.440;1968.11.22 00:00:00; -25.3;1038.8;   5.0;  70.0; 497.288;  29.500;   0.462;270;
74.9732; 177.3371;2; 396.953; 241.714;1968.11.22 06:00:00; -26.8;1038.0;   4.0;  70.0; 500.059;  29.750;   0.462;270;
74.9730; 177.2410;2; 396.942; 241.987;1968.11.22 12:00:00; -26.7;1037.5;   3.0;  70.0; 502.830;  30.000;   0.462;270;
74.9732; 177.1425;2; 396.926; 242.266;1968.11.22 18:00:00; -27.6;1036.7;   3.0;  70.0; 505.670;  30.250;   0.473;270;
74.9733; 177.0440;2; 396.911; 242.546;1968.11.23 00:00:00; -27.0;1037.0;   1.0;  90.0; 508.509;  30.500;   0.473;270;
74.9733; 176.9455;2; 396.895; 242.826;1968.11.23 06:00:00; -27.0;1035.6;   1.0;  70.0; 511.349;  30.750;   0.473;270;
74.9734; 176.8470;2; 396.880; 243.106;1968.11.23 12:00:00; -26.0;1035.4;   0.0;   0.0; 514.189;  31.000;   0.473;270;
74.9733; 176.7485;2; 396.865; 243.386;1968.11.23 18:00:00; -27.0;1034.7;   1.0;  90.0; 517.029;  31.250;   0.473;270;
74.9733; 176.6500;2; 396.849; 243.665;1968.11.24 00:00:00; -26.3;1034.9;   2.0;  90.0; 519.869;  31.500;   0.473;270;
74.9732; 176.5515;2; 396.834; 243.945;1968.11.24 06:00:00; -26.3;1034.4;   2.0; 120.0; 522.708;  31.750;   0.473;270;
74.9730; 176.4530;2; 396.818; 244.225;1968.11.24 12:00:00; -27.2;1034.2;   2.0;  90.0; 525.548;  32.000;   0.473;270;
74.9731; 176.3921;2; 396.807; 244.398;1968.11.24 18:00:00; -26.3;1032.8;   2.0;  70.0; 527.303;  32.250;   0.292;270;
74.9731; 176.3313;2; 396.795; 244.570;1968.11.25 00:00:00; -27.0;1033.1;   3.0;  90.0; 529.058;  32.500;   0.293;270;
74.9731; 176.2704;2; 396.784; 244.743;1968.11.25 06:00:00; -26.7;1033.6;   2.0;  90.0; 530.813;  32.750;   0.292;270;
74.9731; 176.2095;2; 396.773; 244.916;1968.11.25 12:00:00; -26.7;1035.2;   3.0;  90.0; 532.568;  33.000;   0.293;270;
74.9731; 176.1486;2; 396.761; 245.089;1968.11.25 18:00:00; -27.4;1035.8;   2.0;  70.0; 534.323;  33.250;   0.293;270;
74.9731; 176.0878;2; 396.750; 245.262;1968.11.26 00:00:00; -27.6;1035.9;   3.0;  70.0; 536.078;  33.500;   0.292;270;
74.9731; 176.0269;2; 396.738; 245.434;1968.11.26 06:00:00; -27.6;1035.1;   4.0;  70.0; 537.833;  33.750;   0.293;270;
74.9730; 175.9660;2; 396.727; 245.607;1968.11.26 12:00:00; -28.4;1035.2;   4.0;  70.0; 539.588;  34.000;   0.292;270;
74.9715; 175.9308;2; 396.736; 245.708;1968.11.26 18:00:00; -28.6;1033.7;   4.0;  70.0; 540.615;  34.250;   0.171;261;
74.9700; 175.8957;2; 396.745; 245.809;1968.11.27 00:00:00; -28.8;1033.1;   3.0;  70.0; 541.642;  34.500;   0.171;261;
74.9685; 175.8606;2; 396.754; 245.910;1968.11.27 06:00:00; -29.4;1031.2;   3.0;  20.0; 542.669;  34.750;   0.171;261;
74.9670; 175.8254;2; 396.763; 246.011;1968.11.27 12:00:00; -29.4;1029.9;   3.0; 360.0; 543.695;  35.000;   0.171;261;
74.9655; 175.7903;2; 396.772; 246.112;1968.11.27 18:00:00; -30.3;1027.1;   4.0; 340.0; 544.722;  35.250;   0.171;261;
74.9640; 175.7552;2; 396.782; 246.213;1968.11.28 00:00:00; -30.0;1024.1;   5.0; 340.0; 545.749;  35.500;   0.171;261;
74.9625; 175.7201;2; 396.791; 246.314;1968.11.28 06:00:00; -29.5;1020.3;   5.0; 360.0; 546.775;  35.750;   0.171;261;
74.9610; 175.6850;2; 396.800; 246.414;1968.11.28 12:00:00; -30.0;1018.1;   5.0; 360.0; 547.802;  36.000;   0.171;261;
74.9439; 175.6425;2; 396.978; 246.549;1968.11.28 18:00:00; -31.2;1015.3;   4.0; 360.0; 550.064;  36.250;   0.377;213;
74.9268; 175.6002;2; 397.156; 246.684;1968.11.29 00:00:00; -32.1;1014.0;   4.0;  20.0; 552.325;  36.500;   0.377;213;
74.9097; 175.5579;2; 397.334; 246.819;1968.11.29 06:00:00; -32.4;1013.8;   4.0;  20.0; 554.587;  36.750;   0.377;213;
74.8926; 175.5157;2; 397.512; 246.954;1968.11.29 12:00:00; -31.0;1013.2;   4.0;  50.0; 556.849;  37.000;   0.377;213;
74.8754; 175.4737;2; 397.689; 247.088;1968.11.29 18:00:00; -29.1;1011.3;   5.0; 360.0; 559.111;  37.250;   0.377;213;
74.8583; 175.4317;2; 397.867; 247.223;1968.11.30 00:00:00; -29.3;1011.6;   4.0; 340.0; 561.373;  37.500;   0.377;213;
74.8411; 175.3898;2; 398.045; 247.358;1968.11.30 06:00:00; -29.5;1011.2;   5.0; 340.0; 563.636;  37.750;   0.377;213;
74.8240; 175.3480;2; 398.223; 247.493;1968.11.30 12:00:00; -28.7;1010.5;   4.0; 320.0; 565.897;  38.000;   0.377;213;
74.8120; 175.3538;2; 398.356; 247.487;1968.11.30 18:00:00; -28.2;1009.5;   4.0; 320.0; 567.242;  38.250;   0.224;173;
74.8000; 175.3595;2; 398.489; 247.481;1968.12.01 00:00:00; -28.4;1008.7;   5.0; 290.0; 568.586;  38.500;   0.224;173;
74.7880; 175.3653;2; 398.621; 247.475;1968.12.01 06:00:00; -27.8;1008.3;   6.0; 320.0; 569.932;  38.750;   0.224;173;
74.7760; 175.3711;2; 398.754; 247.469;1968.12.01 12:00:00; -26.1;1008.4;   6.0; 290.0; 571.276;  39.000;   0.224;173;
74.7640; 175.3768;2; 398.886; 247.463;1968.12.01 18:00:00; -25.9;1008.5;   5.0; 290.0; 572.621;  39.250;   0.224;173;
74.7520; 175.3826;2; 399.019; 247.457;1968.12.02 00:00:00; -27.4;1007.7;   6.0; 270.0; 573.966;  39.500;   0.224;173;
74.7400; 175.3883;2; 399.152; 247.452;1968.12.02 06:00:00; -25.5;1007.0;   6.0; 270.0; 575.311;  39.750;   0.224;173;
74.7280; 175.3940;2; 399.284; 247.446;1968.12.02 12:00:00; -25.7;1007.6;   6.0; 270.0; 576.656;  40.000;   0.224;173;
74.7219; 175.4131;2; 399.356; 247.396;1968.12.02 18:00:00; -25.7;1009.7;   5.0; 270.0; 577.536;  40.250;   0.147;141;
74.7158; 175.4321;2; 399.427; 247.347;1968.12.03 00:00:00; -26.0;1012.8;   4.0; 270.0; 578.416;  40.500;   0.147;141;
74.7096; 175.4511;2; 399.499; 247.297;1968.12.03 06:00:00; -27.8;1017.1;   4.0; 270.0; 579.296;  40.750;   0.147;141;
74.7035; 175.4701;2; 399.570; 247.247;1968.12.03 12:00:00; -29.1;1020.5;   4.0; 250.0; 580.177;  41.000;   0.147;141;
74.6974; 175.4891;2; 399.641; 247.198;1968.12.03 18:00:00; -30.4;1023.7;   4.0; 250.0; 581.056;  41.250;   0.147;141;
74.6913; 175.5081;2; 399.713; 247.148;1968.12.04 00:00:00; -31.3;1027.2;   4.0; 250.0; 581.936;  41.500;   0.147;141;
74.6851; 175.5271;2; 399.784; 247.099;1968.12.04 06:00:00; -33.2;1029.0;   3.0; 230.0; 582.817;  41.750;   0.147;141;
74.6790; 175.5460;2; 399.855; 247.049;1968.12.04 12:00:00; -33.4;1030.3;   1.0; 200.0; 583.696;  42.000;   0.147;141;
74.6894; 175.5385;2; 399.740; 247.062;1968.12.04 18:00:00; -30.6;1029.8;   4.0;  90.0; 584.871;  42.250;   0.196;349;
74.6998; 175.5311;2; 399.625; 247.075;1968.12.05 00:00:00; -26.6;1029.0;   4.0;  90.0; 586.045;  42.500;   0.196;349;
74.7101; 175.5236;2; 399.510; 247.088;1968.12.05 06:00:00; -22.3;1028.1;   6.0;  90.0; 587.220;  42.750;   0.196;349;
74.7205; 175.5161;2; 399.395; 247.100;1968.12.05 12:00:00; -20.2;1025.5;   8.0;  90.0; 588.393;  43.000;   0.196;349;
74.7309; 175.5086;2; 399.279; 247.113;1968.12.05 18:00:00; -20.2;1024.4;   8.0; 110.0; 589.569;  43.250;   0.196;349;
74.7412; 175.5011;2; 399.164; 247.126;1968.12.06 00:00:00; -19.8;1020.8;  10.0; 110.0; 590.743;  43.500;   0.196;349;
74.7516; 175.4935;2; 399.049; 247.138;1968.12.06 06:00:00; -18.2;1018.5;  11.0; 140.0; 591.918;  43.750;   0.196;349;
74.7620; 175.4860;2; 398.933; 247.151;1968.12.06 12:00:00; -16.0;1018.4;   8.0; 140.0; 593.092;  44.000;   0.196;349;
74.7761; 175.4599;2; 398.773; 247.214;1968.12.06 18:00:00; -18.6;1017.1;   8.0; 140.0; 594.839;  44.250;   0.291;334;
74.7903; 175.4338;2; 398.612; 247.277;1968.12.07 00:00:00; -19.0;1016.7;   6.0; 140.0; 596.585;  44.500;   0.291;334;
74.8044; 175.4076;2; 398.452; 247.339;1968.12.07 06:00:00; -17.3;1015.1;   8.0; 140.0; 598.332;  44.750;   0.291;334;
74.8185; 175.3814;2; 398.291; 247.402;1968.12.07 12:00:00; -16.8;1014.2;   7.0; 140.0; 600.079;  45.000;   0.291;334;
74.8326; 175.3551;2; 398.130; 247.465;1968.12.07 18:00:00; -14.0;1012.8;   6.0; 160.0; 601.825;  45.250;   0.291;334;
74.8468; 175.3288;2; 397.970; 247.527;1968.12.08 00:00:00; -14.1;1012.6;   5.0; 180.0; 603.572;  45.500;   0.291;334;
74.8609; 175.3024;2; 397.809; 247.590;1968.12.08 06:00:00; -13.1;1011.7;   4.0; 140.0; 605.320;  45.750;   0.291;334;
74.8750; 175.2760;2; 397.649; 247.653;1968.12.08 12:00:00; -18.8;1007.8;   7.0; 110.0; 607.065;  46.000;   0.291;334;
74.8869; 175.2422;2; 397.511; 247.739;1968.12.08 18:00:00; -16.6;1002.1;   8.0; 110.0; 608.711;  46.250;   0.274;323;
74.8988; 175.2083;2; 397.372; 247.824;1968.12.09 00:00:00; -15.0; 997.4;   5.0; 140.0; 610.358;  46.500;   0.275;323;
74.9107; 175.1744;2; 397.234; 247.910;1968.12.09 06:00:00; -15.6; 993.6;   2.0; 140.0; 612.004;  46.750;   0.274;323;
74.9225; 175.1404;2; 397.096; 247.996;1968.12.09 12:00:00; -19.0; 996.1;   7.0; 340.0; 613.651;  47.000;   0.274;323;
74.9344; 175.1064;2; 396.958; 248.081;1968.12.09 18:00:00; -18.4; 984.8;   8.0; 360.0; 615.297;  47.250;   0.274;323;
74.9463; 175.0723;2; 396.820; 248.167;1968.12.10 00:00:00; -18.8; 978.8;   8.0; 360.0; 616.944;  47.500;   0.274;323;
74.9581; 175.0382;2; 396.682; 248.253;1968.12.10 06:00:00; -23.9; 987.7;   9.0; 270.0; 618.590;  47.750;   0.274;323;
74.9700; 175.0040;2; 396.544; 248.338;1968.12.10 12:00:00; -27.2; 997.2;   8.0; 230.0; 620.237;  48.000;   0.275;323;
74.9803; 174.9761;2; 396.425; 248.407;1968.12.10 18:00:00; -29.8;1003.1;   6.0; 230.0; 621.632;  48.250;   0.233;325;
74.9905; 174.9482;2; 396.306; 248.476;1968.12.11 00:00:00; -32.0;1006.6;   5.0; 230.0; 623.028;  48.500;   0.233;325;
75.0008; 174.9203;2; 396.187; 248.546;1968.12.11 06:00:00; -34.6;1008.2;   3.0; 200.0; 624.424;  48.750;   0.233;325;
75.0110; 174.8923;2; 396.068; 248.615;1968.12.11 12:00:00; -33.8;1008.1;   3.0; 200.0; 625.819;  49.000;   0.233;325;
75.0213; 174.8643;2; 395.949; 248.684;1968.12.11 18:00:00; -36.5;1006.7;   3.0; 230.0; 627.215;  49.250;   0.233;325;
75.0315; 174.8362;2; 395.830; 248.753;1968.12.12 00:00:00; -36.2;1004.8;   3.0; 250.0; 628.610;  49.500;   0.233;325;
75.0418; 174.8081;2; 395.711; 248.822;1968.12.12 06:00:00; -37.1;1004.2;   4.0; 270.0; 630.006;  49.750;   0.233;325;
75.0520; 174.7800;2; 395.591; 248.891;1968.12.12 12:00:00; -37.7;1003.3;   3.0; 270.0; 631.401;  50.000;   0.233;325;